Regional Weather Roundup
Issued by NWS Albany, NY

Home | Current Version | Previous Version | Text Only | Print | Product List | Glossary On
Versions: 1 2 3 4 5 6 7 8 9 10 11 12 13 14 15 16 17 18 19 20 21 22 23 24 25 26 27 28 29 30 31 32 33 34 35 36 37 38 39 40 41 42 43 44 45 46 47 48 49 50
000
ASUS41 KALY 270510
RWRALY

NEW YORK STATE HOURLY WEATHER ROUNDUP
NATIONAL WEATHER SERVICE ALBANY NY
100 AM EDT TUE SEP 27 2016

NOTE: "FAIR" INDICATES FEW OR NO CLOUDS BELOW 12,000 FEET WITH NO
SIGNIFICANT WEATHER AND/OR NO OBSTRUCTIONS TO VISIBILITY.

NYZ032-033-038>043-046>054-057>066-NYZ062>081-082-084-270600-
EAST


CITY           SKY/WX    TMP DP  RH WIND       PRES   REMARKS
ALBANY         LGT RAIN  61  53  75 S7        29.92F
GLENS FALLS    LGT RAIN  58  54  86 SW3       29.91F
POUGHKEEPSIE   CLOUDY    65  54  67 S5        29.94F
NEWBURGH       DRIZZLE   64  57  77 SW7       29.96F
MONTGOMERY     LGT RAIN  63  56  78 SW6       29.95F
WHITE PLAINS   MOCLDY    66  60  81 S6        29.96F
ISLIP          CLOUDY    69  61  75 S12       29.97F
NEW YORK CITY  CLOUDY    71  61  70 S14       29.95F
CENTRAL PARK   CLOUDY    69  60  73 S3        29.97F
$$

NYZ005>009-017-018-044>046-055-056-270600-
CENTRAL


CITY           SKY/WX    TMP DP  RH WIND       PRES   REMARKS
FULTON         CLOUDY    60  58  92 SW5       29.89S
SYRACUSE       CLOUDY    61  58  90 SW10      29.88S
ROME           CLOUDY    60  57  89 S8        29.90F
ELMIRA         CLOUDY    61  58  90 CALM      29.92S
BINGHAMTON     LGT RAIN  55  55 100 SW7       29.93S FOG
MONTICELLO     CLOUDY    55  54  94 S3        29.98F
$$

NYZ026>034-041>043-087-270600-
NORTH


CITY           SKY/WX    TMP DP  RH WIND       PRES   REMARKS
WATERTOWN      CLOUDY    60  57  89 W7        29.86R
FORT DRUM      NOT AVBL
OGDENSBURG     HVY RAIN  59  58  96 S7        29.82R
MASSENA        LGT RAIN  63  54  72 SW12G21   29.81F
SARANAC LAKE   CLOUDY    55  51  86 SW9       29.86F
PLATTSBURGH    LGT RAIN  55  52  89 CALM      29.84F
$$

NYZ001>004-010>016-019>021-085-270600-
WEST


CITY           SKY/WX    TMP DP  RH WIND       PRES   REMARKS
NIAGARA FALLS  PTCLDY    60  45  57 W10       29.87F
BUFFALO        PTCLDY    57  53  86 S6        29.88F
DUNKIRK        PTCLDY    57  53  86 S12       29.90F
JAMESTOWN      MOCLDY    54  48  82 SW9       29.94S
WELLSVILLE     PTCLDY    54  52  93 W7        29.97S
ROCHESTER      CLEAR     55  49  80 SW3       29.89F
PENN YAN       CLOUDY    61  58  90 CALM      29.92S
$$

             KEY
       WCI = WIND CHILL INDEX
       VSB = VISIBILITY
       HX  = HEAT INDEX
$$



USA.gov is the U.S. government's official web portal to all federal, state and local government web resources and services.